sat.trackr.live / text

‹ back to catalog

AMAZONAS 2

NORAD 35942 · 2009-054A

PAYLOAD ACTIVE UNKNOWN

§ Identity

Operator
Country
SPN
Launch date
2009-10-01
Launch site
FRGUI
Launch vehicle
Mass (kg)
RCS (m²)
11.02

Purposes: comms

External: N2YO · Heavens-Above · Gunter

§ Orbital elements

Epoch: 2026-09-20T03:56:36.864384Z

Period
1,436.10 min
Inclination
2.0535°
Eccentricity
0.0003305
Mean motion
1.00271807 rev/d
Perigee alt
35,772.7 km
Apogee alt
35,800.5 km
Semi-major
42,164.7 km
B*
0.0000e+0
RAAN
81.7131°
Arg perigee
90.6197°
Mean anomaly
173.8980°
Rev number
6,213

§ Raw data

AMAZONAS 21 35942U 09054A   26263.16431556 -.00000263  00000+0  00000+0 0  99912 35942   2.0535  81.7131 0003305  90.6197 173.8980  1.00271807 62138

JSON: /api/v1/satellites/35942 · /tle

For live sub-satellite position, see the globe view (requires WebGL).

§ Visibility from observer

Set your observer location to see the next 7 days of passes ≥ 10°. The values pass through the URL so the page stays shareable.

No JS? Fill the form by hand. The geolocation button needs JavaScript.